{"data":{"norad_id":62479,"intl_designator":"2024-254T","name":"STARLINK-32705","alt_names":[],"object_type":"PAYLOAD","status":"ACTIVE","operator":null,"country":"US","launch_date":"2024-12-31","launch_site_code":"AFETR","launch_vehicle":null,"mission":null,"orbit_class":"UNKNOWN","rcs_meters":null,"size_class":null,"mass_kg":null,"dimensions":null,"purposes":["comms"],"wikipedia_slug":null,"has_3d_model":false,"image_url":null,"decayed_at":null,"tle_current":{"epoch":"2026-09-21T13:00:40.587552Z","epoch_age_seconds":84490,"freshness":"FRESH","line1":"1 62479U 24254T   26264.54213643  .00007449  00000+0  27985-3 0  9990","line2":"2 62479  43.0033 342.7203 0001380 258.4909 101.5787 15.27591610 97533","mean_motion":15.2759161,"eccentricity":0.000138,"inclination_deg":43.0033,"raan_deg":342.7203,"arg_perigee_deg":258.4909,"mean_anomaly_deg":101.5787,"bstar":0.00027985,"rev_number":9753,"period_min":94.266032267616,"perigee_km":482.06749285938,"apogee_km":483.96117062694,"semimajor_km":6861.1513317432,"source":"CELESTRAK","updated_at":"2026-09-22T09:00:49.614685Z"}}}